This is the latest recevied weather packets stored in our database for station/object KY0TEQ-13. If no packets are shown the sender has not sent any weather packets the latest 10 day(s).
| Time | Temp. | Humidity | Pressure | Rain* | Wind** | Luminosity | Snow |
|---|---|---|---|---|---|---|---|
| 1788144682 | 60° F | 71% | 982.6 mmHg | 0 in | - | 0 W/m² | - |
| 1788144378 | 61° F | 70% | 982.7 mmHg | 0 in | - | 0 W/m² | - |
| 1788144076 | 60° F | 71% | 982.5 mmHg | 0 in | - | 0 W/m² | - |
| 1788143775 | 60° F | 74% | 982.1 mmHg | 0.05 in | - | 0 W/m² | - |
| 1788143474 | 61° F | 74% | 982.4 mmHg | 0.05 in | - | 0 W/m² | - |
| 1788143169 | 63° F | 69% | 982.6 mmHg | 0 in | - | 0 W/m² | - |
| 1788142864 | 65° F | 57% | 983 mmHg | 0 in | - | 0 W/m² | - |
| 1788142562 | 66° F | 55% | 982.6 mmHg | 0 in | - | 0 W/m² | - |
| 1788142258 | 65° F | 52% | 982.1 mmHg | 0 in | - | 0 W/m² | - |
| 1788141954 | 64° F | 53% | 981.5 mmHg | 0 in | - | 0 W/m² | - |
| 1788141648 | 65° F | 55% | 981.2 mmHg | 0 in | - | 0 W/m² | - |
| 1788141344 | 65° F | 49% | 980.9 mmHg | 0 in | - | 0 W/m² | - |
| 1788141039 | 68° F | 45% | 981.2 mmHg | 0 in | - | 0 W/m² | - |
| 1788140734 | 68° F | 45% | 981.5 mmHg | 0 in | - | 0 W/m² | - |
| 1788140430 | 68° F | 44% | 981.3 mmHg | 0 in | - | 0 W/m² | - |
| 1788140125 | 70° F | 41% | 981.1 mmHg | 0 in | - | 0 W/m² | - |
| 1788139820 | 69° F | 40% | 980.8 mmHg | 0 in | - | 0 W/m² | - |
| 1788139514 | 70° F | 39% | 980.9 mmHg | 0 in | - | 1 W/m² | - |
| 1788139209 | 70° F | 39% | 980.8 mmHg | 0 in | - | 2 W/m² | - |
| 1788138908 | 70° F | 39% | 980.9 mmHg | 0 in | - | 4 W/m² | - |
| 1788138604 | 70° F | 39% | 980.8 mmHg | 0 in | - | 8 W/m² | - |
| 1788138299 | 71° F | 38% | 980.8 mmHg | 0 in | - | 14 W/m² | - |
| 1788137995 | 71° F | 38% | 980.6 mmHg | 0 in | - | 20 W/m² | - |
| 1788137691 | 71° F | 37% | 980.6 mmHg | 0 in | - | 29 W/m² | - |
| 1788137389 | 72° F | 37% | 980.6 mmHg | 0 in | - | 36 W/m² | - |
* Rain latest hour (hover to see other rain measurements)
** Current wind speed in m/s (hover to see current wind gust speed)